Year,Month,Day,Hour,Minute,Value (Times are PST for temperature in C)
2018,08,10,00,00,12.20
2018,08,10,00,01,12.30
2018,08,10,00,02,12.30
2018,08,10,00,03,12.30
2018,08,10,00,04,12.30
2018,08,10,00,05,12.30
2018,08,10,00,06,12.30
2018,08,10,00,07,12.30
2018,08,10,00,08,12.30
2018,08,10,00,09,12.30
2018,08,10,00,10,12.30
2018,08,10,00,11,12.20
2018,08,10,00,12,12.20
2018,08,10,00,13,12.20
2018,08,10,00,14,12.20
2018,08,10,00,15,12.30
2018,08,10,00,16,12.20
2018,08,10,00,17,12.20
2018,08,10,00,18,12.20
2018,08,10,00,19,12.20
2018,08,10,00,20,12.20
2018,08,10,00,21,12.20
2018,08,10,00,22,12.20
2018,08,10,00,23,12.20
2018,08,10,00,24,12.20
2018,08,10,00,25,12.20
2018,08,10,00,26,12.20
2018,08,10,00,27,12.20
2018,08,10,00,28,12.20
2018,08,10,00,29,12.20
2018,08,10,00,30,12.20
2018,08,10,00,31,12.20
2018,08,10,00,32,12.20
2018,08,10,00,33,12.20
2018,08,10,00,34,12.20
2018,08,10,00,35,12.20
2018,08,10,00,36,12.20
2018,08,10,00,37,12.20
2018,08,10,00,38,12.20
2018,08,10,00,39,12.20
2018,08,10,00,40,12.20
2018,08,10,00,41,12.20
2018,08,10,00,42,12.20
2018,08,10,00,43,12.20
2018,08,10,00,44,12.20
2018,08,10,00,45,12.20
2018,08,10,00,46,12.20
2018,08,10,00,47,12.20
2018,08,10,00,48,12.20
2018,08,10,00,49,12.20
2018,08,10,00,50,12.20
2018,08,10,00,51,12.20
2018,08,10,00,52,12.10
2018,08,10,00,53,12.10
2018,08,10,00,54,12.10
2018,08,10,00,55,12.00
2018,08,10,00,56,12.00
2018,08,10,00,57,11.90
2018,08,10,00,58,11.80
2018,08,10,00,59,11.80
2018,08,10,01,00,11.80
2018,08,10,01,01,11.80
2018,08,10,01,02,11.80
2018,08,10,01,03,11.80
2018,08,10,01,04,11.80
2018,08,10,01,05,11.80
2018,08,10,01,06,11.80
2018,08,10,01,07,11.80
2018,08,10,01,08,11.80
2018,08,10,01,09,11.70
2018,08,10,01,10,11.80
2018,08,10,01,11,11.80
2018,08,10,01,12,11.80
2018,08,10,01,13,11.80
2018,08,10,01,14,11.80
2018,08,10,01,15,11.80
2018,08,10,01,16,11.80
2018,08,10,01,17,12.00
2018,08,10,01,18,12.00
2018,08,10,01,19,12.00
2018,08,10,01,20,11.90
2018,08,10,01,21,11.90
2018,08,10,01,22,11.90
2018,08,10,01,23,11.90
2018,08,10,01,24,11.90
2018,08,10,01,25,11.80
2018,08,10,01,26,11.80
2018,08,10,01,27,11.80
2018,08,10,01,28,11.80
2018,08,10,01,29,11.80
2018,08,10,01,30,11.70
2018,08,10,01,31,11.70
2018,08,10,01,32,11.90
2018,08,10,01,33,12.00
2018,08,10,01,34,12.10
2018,08,10,01,35,12.10
2018,08,10,01,36,12.20
2018,08,10,01,37,12.20
2018,08,10,01,38,12.30
2018,08,10,01,39,12.30
2018,08,10,01,40,12.30
2018,08,10,01,41,12.30
2018,08,10,01,42,12.20
2018,08,10,01,43,12.30
2018,08,10,01,44,12.30
2018,08,10,01,45,12.40
2018,08,10,01,46,12.50
2018,08,10,01,47,12.70
2018,08,10,01,48,12.80
2018,08,10,01,49,12.80
2018,08,10,01,50,12.80
2018,08,10,01,51,12.80
2018,08,10,01,52,12.70
2018,08,10,01,53,12.70
2018,08,10,01,54,12.70
2018,08,10,01,55,12.60
2018,08,10,01,56,12.60
2018,08,10,01,57,12.50
2018,08,10,01,58,12.50
2018,08,10,01,59,12.40
2018,08,10,02,00,12.30
2018,08,10,02,01,12.20
2018,08,10,02,02,12.10
2018,08,10,02,03,12.00
2018,08,10,02,04,11.90
2018,08,10,02,05,11.80
2018,08,10,02,06,11.70
2018,08,10,02,07,11.70
2018,08,10,02,08,11.60
2018,08,10,02,09,11.60
2018,08,10,02,10,11.60
2018,08,10,02,11,11.50
2018,08,10,02,12,11.50
2018,08,10,02,13,11.40
2018,08,10,02,14,11.40
2018,08,10,02,15,11.30
2018,08,10,02,16,11.30
2018,08,10,02,17,11.20
2018,08,10,02,18,11.20
2018,08,10,02,19,11.20
2018,08,10,02,20,11.10
2018,08,10,02,21,11.10
2018,08,10,02,22,11.10
2018,08,10,02,23,11.00
2018,08,10,02,24,11.00
2018,08,10,02,25,11.00
2018,08,10,02,26,11.00
2018,08,10,02,27,10.90
2018,08,10,02,28,10.90
2018,08,10,02,29,10.90
2018,08,10,02,30,10.90
2018,08,10,02,31,10.90
2018,08,10,02,32,10.90
2018,08,10,02,33,10.90
2018,08,10,02,34,10.90
2018,08,10,02,35,10.90
2018,08,10,02,36,10.90
2018,08,10,02,37,10.90
2018,08,10,02,38,10.90
2018,08,10,02,39,11.00
2018,08,10,02,40,11.00
2018,08,10,02,41,11.00
2018,08,10,02,42,11.00
2018,08,10,02,43,11.00
2018,08,10,02,44,11.00
2018,08,10,02,45,11.10
2018,08,10,02,46,11.10
2018,08,10,02,47,11.10
2018,08,10,02,48,11.10
2018,08,10,02,49,11.10
2018,08,10,02,50,11.10
2018,08,10,02,51,11.10
2018,08,10,02,52,11.10
2018,08,10,02,53,11.10
2018,08,10,02,54,11.10
2018,08,10,02,55,11.10
2018,08,10,02,56,11.10
2018,08,10,02,57,11.10
2018,08,10,02,58,11.00
2018,08,10,02,59,11.00
2018,08,10,03,00,11.00
2018,08,10,03,01,11.00
2018,08,10,03,02,11.00
2018,08,10,03,03,11.00
2018,08,10,03,04,10.90
2018,08,10,03,05,10.90
2018,08,10,03,06,10.90
2018,08,10,03,07,10.80
2018,08,10,03,08,10.80
2018,08,10,03,09,10.80
2018,08,10,03,10,10.80
2018,08,10,03,11,10.80
2018,08,10,03,12,10.80
2018,08,10,03,13,10.80
2018,08,10,03,14,10.80
2018,08,10,03,15,10.70
2018,08,10,03,16,10.70
2018,08,10,03,17,10.70
2018,08,10,03,18,10.70
2018,08,10,03,19,10.70
2018,08,10,03,20,10.70
2018,08,10,03,21,10.60
2018,08,10,03,22,10.60
2018,08,10,03,23,10.60
2018,08,10,03,24,10.60
2018,08,10,03,25,10.60
2018,08,10,03,26,10.60
2018,08,10,03,27,10.60
2018,08,10,03,28,10.60
2018,08,10,03,29,10.60
2018,08,10,03,30,10.60
2018,08,10,03,31,10.60
2018,08,10,03,32,10.60
2018,08,10,03,33,10.60
2018,08,10,03,34,10.60
2018,08,10,03,35,10.60
2018,08,10,03,36,10.60
2018,08,10,03,37,10.60
2018,08,10,03,38,10.60
2018,08,10,03,39,10.60
2018,08,10,03,40,10.60
2018,08,10,03,41,10.60
2018,08,10,03,42,10.60
2018,08,10,03,43,10.60
2018,08,10,03,44,10.60
2018,08,10,03,45,10.60
2018,08,10,03,46,10.60
2018,08,10,03,47,10.60
2018,08,10,03,48,10.60
2018,08,10,03,49,10.60
2018,08,10,03,50,10.60
2018,08,10,03,51,10.60
2018,08,10,03,52,10.60
2018,08,10,03,53,10.60
2018,08,10,03,54,10.60
2018,08,10,03,55,10.60
2018,08,10,03,56,10.60
2018,08,10,03,57,10.60
2018,08,10,03,58,10.60
2018,08,10,03,59,10.60
2018,08,10,04,00,10.60
2018,08,10,04,01,10.60
2018,08,10,04,02,10.60
2018,08,10,04,03,10.60
2018,08,10,04,04,10.60
2018,08,10,04,05,10.60
2018,08,10,04,06,10.60
2018,08,10,04,07,10.60
2018,08,10,04,08,10.60
2018,08,10,04,09,10.60
2018,08,10,04,10,10.60
2018,08,10,04,11,10.60
2018,08,10,04,12,10.50
2018,08,10,04,13,10.50
2018,08,10,04,14,10.50
2018,08,10,04,15,10.40
2018,08,10,04,16,10.40
2018,08,10,04,17,10.40
2018,08,10,04,18,10.40
2018,08,10,04,19,10.40
2018,08,10,04,20,10.40
2018,08,10,04,21,10.40
2018,08,10,04,22,10.40
2018,08,10,04,23,10.50
2018,08,10,04,24,10.40
2018,08,10,04,25,10.50
2018,08,10,04,26,10.50
2018,08,10,04,27,10.50
2018,08,10,04,28,10.50
2018,08,10,04,29,10.50
2018,08,10,04,30,10.40
2018,08,10,04,31,10.40
2018,08,10,04,32,10.40
2018,08,10,04,33,10.40
2018,08,10,04,34,10.40
2018,08,10,04,35,10.40
2018,08,10,04,36,10.40
2018,08,10,04,37,10.40
2018,08,10,04,38,10.40
2018,08,10,04,39,10.50
2018,08,10,04,40,10.40
2018,08,10,04,41,10.40
2018,08,10,04,42,10.40
2018,08,10,04,43,10.40
2018,08,10,04,44,10.40
2018,08,10,04,45,10.40
2018,08,10,04,46,10.40
2018,08,10,04,47,10.40
2018,08,10,04,48,10.40
2018,08,10,04,49,10.40
2018,08,10,04,50,10.40
2018,08,10,04,51,10.30
2018,08,10,04,52,10.30
2018,08,10,04,53,10.30
2018,08,10,04,54,10.30
2018,08,10,04,55,10.30
2018,08,10,04,56,10.30
2018,08,10,04,57,10.30
2018,08,10,04,58,10.30
2018,08,10,04,59,10.30
2018,08,10,05,00,10.30
2018,08,10,05,01,10.30
2018,08,10,05,02,10.30
2018,08,10,05,03,10.30
2018,08,10,05,04,10.20
2018,08,10,05,05,10.20
2018,08,10,05,06,10.20
2018,08,10,05,07,10.20
2018,08,10,05,08,10.20
2018,08,10,05,09,10.20
2018,08,10,05,10,10.20
2018,08,10,05,11,10.20
2018,08,10,05,12,10.20
2018,08,10,05,13,10.20
2018,08,10,05,14,10.20
2018,08,10,05,15,10.20
2018,08,10,05,16,10.20
2018,08,10,05,17,10.20
2018,08,10,05,18,10.20
2018,08,10,05,19,10.20
2018,08,10,05,20,10.20
2018,08,10,05,21,10.20
2018,08,10,05,22,10.30
2018,08,10,05,23,10.30
2018,08,10,05,24,10.30
2018,08,10,05,25,10.30
2018,08,10,05,26,10.20
2018,08,10,05,27,10.20
2018,08,10,05,28,10.30
2018,08,10,05,29,10.30
2018,08,10,05,30,10.30
2018,08,10,05,31,10.30
2018,08,10,05,32,10.20
2018,08,10,05,33,10.20
2018,08,10,05,34,10.20
2018,08,10,05,35,10.20
2018,08,10,05,36,10.20
2018,08,10,05,37,10.20
2018,08,10,05,38,10.20
2018,08,10,05,39,10.20
2018,08,10,05,40,10.20
2018,08,10,05,41,10.20
2018,08,10,05,42,10.20
2018,08,10,05,43,10.20
2018,08,10,05,44,10.20
2018,08,10,05,45,10.20
2018,08,10,05,46,10.20
2018,08,10,05,47,10.20
2018,08,10,05,48,10.20
2018,08,10,05,49,10.20
2018,08,10,05,50,10.20
2018,08,10,05,51,10.10
2018,08,10,05,52,10.10
2018,08,10,05,53,10.10
2018,08,10,05,54,10.10
2018,08,10,05,55,10.10
2018,08,10,05,56,10.20
2018,08,10,05,57,10.20
2018,08,10,05,58,10.20
2018,08,10,05,59,10.20
2018,08,10,06,00,10.20
2018,08,10,06,01,10.20
2018,08,10,06,02,10.20
2018,08,10,06,03,10.20
2018,08,10,06,04,10.20
2018,08,10,06,05,10.30
2018,08,10,06,06,10.20
2018,08,10,06,07,10.20
2018,08,10,06,08,10.20
2018,08,10,06,09,10.20
2018,08,10,06,10,10.20
2018,08,10,06,11,10.20
2018,08,10,06,12,10.20
2018,08,10,06,13,10.20
2018,08,10,06,14,10.20
2018,08,10,06,15,10.20
2018,08,10,06,16,10.20
2018,08,10,06,17,10.20
2018,08,10,06,18,10.20
2018,08,10,06,19,10.20
2018,08,10,06,20,10.10
2018,08,10,06,21,10.10
2018,08,10,06,22,10.10
2018,08,10,06,23,10.10
2018,08,10,06,24,10.10
2018,08,10,06,25,10.10
2018,08,10,06,26,10.10
2018,08,10,06,27,10.10
2018,08,10,06,28,10.10
2018,08,10,06,29,10.10
2018,08,10,06,30,10.10
2018,08,10,06,31,10.10
2018,08,10,06,32,10.10
2018,08,10,06,33,10.00
2018,08,10,06,34,10.00
2018,08,10,06,35,10.00
2018,08,10,06,36,9.90
2018,08,10,06,37,9.90
2018,08,10,06,38,9.90
2018,08,10,06,39,9.90
2018,08,10,06,40,9.90
2018,08,10,06,41,9.90
2018,08,10,06,42,10.00
2018,08,10,06,43,10.00
2018,08,10,06,44,10.00
2018,08,10,06,45,10.00
2018,08,10,06,46,10.00
2018,08,10,06,47,10.00
2018,08,10,06,48,10.10
2018,08,10,06,49,10.10
2018,08,10,06,50,10.10
2018,08,10,06,51,10.10
2018,08,10,06,52,10.10
2018,08,10,06,53,10.10
2018,08,10,06,54,10.20
2018,08,10,06,55,10.20
2018,08,10,06,56,10.20
2018,08,10,06,57,10.30
2018,08,10,06,58,10.30
2018,08,10,06,59,10.30
2018,08,10,07,00,10.40
2018,08,10,07,01,10.50
2018,08,10,07,02,10.50
2018,08,10,07,03,10.60
2018,08,10,07,04,10.60
2018,08,10,07,05,10.60
2018,08,10,07,06,10.60
2018,08,10,07,07,10.60
2018,08,10,07,08,10.60
2018,08,10,07,09,10.60
2018,08,10,07,10,10.60
2018,08,10,07,11,10.60
2018,08,10,07,12,10.70
2018,08,10,07,13,10.70
2018,08,10,07,14,10.70
2018,08,10,07,15,10.70
2018,08,10,07,16,10.70
2018,08,10,07,17,10.80
2018,08,10,07,18,10.80
2018,08,10,07,19,10.80
2018,08,10,07,20,10.80
2018,08,10,07,21,10.80
2018,08,10,07,22,10.80
2018,08,10,07,23,10.80
2018,08,10,07,24,10.80
2018,08,10,07,25,10.80
2018,08,10,07,26,10.80
2018,08,10,07,27,10.90
2018,08,10,07,28,10.90
2018,08,10,07,29,10.90
2018,08,10,07,30,10.90
2018,08,10,07,31,10.90
2018,08,10,07,32,11.00
2018,08,10,07,33,11.10
2018,08,10,07,34,11.10
2018,08,10,07,35,11.20
2018,08,10,07,36,11.20
2018,08,10,07,37,11.30
2018,08,10,07,38,11.30
2018,08,10,07,39,11.30
2018,08,10,07,40,11.40
2018,08,10,07,41,11.40
2018,08,10,07,42,11.40
2018,08,10,07,43,11.50
2018,08,10,07,44,11.60
2018,08,10,07,45,11.60
2018,08,10,07,46,11.70
2018,08,10,07,47,11.70
2018,08,10,07,48,11.80
2018,08,10,07,49,11.80
2018,08,10,07,50,11.90
2018,08,10,07,51,12.00
2018,08,10,07,52,12.10
2018,08,10,07,53,12.20
2018,08,10,07,54,12.30
2018,08,10,07,55,12.40
2018,08,10,07,56,12.60
2018,08,10,07,57,12.60
2018,08,10,07,58,12.70
2018,08,10,07,59,12.80
2018,08,10,08,00,12.90
2018,08,10,08,01,13.00
2018,08,10,08,02,13.10
2018,08,10,08,03,13.20
2018,08,10,08,04,13.30
2018,08,10,08,05,13.40
2018,08,10,08,06,13.50
2018,08,10,08,07,13.60
2018,08,10,08,08,13.70
2018,08,10,08,09,13.80
2018,08,10,08,10,13.90
2018,08,10,08,11,14.00
2018,08,10,08,12,14.10
2018,08,10,08,13,14.20
2018,08,10,08,14,14.30
2018,08,10,08,15,14.40
2018,08,10,08,16,14.40
2018,08,10,08,17,14.50
2018,08,10,08,18,14.60
2018,08,10,08,19,14.70
2018,08,10,08,20,14.80
2018,08,10,08,21,14.80
2018,08,10,08,22,14.90
2018,08,10,08,23,14.90
2018,08,10,08,24,15.00
2018,08,10,08,25,15.00
2018,08,10,08,26,15.00
2018,08,10,08,27,15.00
2018,08,10,08,28,15.00
2018,08,10,08,29,15.00
2018,08,10,08,30,14.90
2018,08,10,08,31,15.00
2018,08,10,08,32,15.00
2018,08,10,08,33,14.90
2018,08,10,08,34,14.90
2018,08,10,08,35,14.90
2018,08,10,08,36,14.90
2018,08,10,08,37,14.80
2018,08,10,08,38,14.80
2018,08,10,08,39,14.90
2018,08,10,08,40,15.00
2018,08,10,08,41,15.00
2018,08,10,08,42,15.20
2018,08,10,08,43,15.30
2018,08,10,08,44,15.30
2018,08,10,08,45,15.40
2018,08,10,08,46,15.50
2018,08,10,08,47,15.50
2018,08,10,08,48,15.60
2018,08,10,08,49,15.60
2018,08,10,08,50,15.60
2018,08,10,08,51,15.70
2018,08,10,08,52,15.60
2018,08,10,08,53,15.60
2018,08,10,08,54,15.60
2018,08,10,08,55,15.60
2018,08,10,08,56,15.50
2018,08,10,08,57,15.50
2018,08,10,08,58,15.40
2018,08,10,08,59,15.40
2018,08,10,09,00,15.40
2018,08,10,09,01,15.30
2018,08,10,09,02,15.30
2018,08,10,09,03,15.40
2018,08,10,09,04,15.40
2018,08,10,09,05,15.50
2018,08,10,09,06,15.50
2018,08,10,09,07,15.60
2018,08,10,09,08,15.70
2018,08,10,09,09,15.80
2018,08,10,09,10,15.90
2018,08,10,09,11,16.00
2018,08,10,09,12,16.10
2018,08,10,09,13,16.20
2018,08,10,09,14,16.20
2018,08,10,09,15,16.30
2018,08,10,09,16,16.30
2018,08,10,09,17,16.30
2018,08,10,09,18,16.40
2018,08,10,09,19,16.40
2018,08,10,09,20,16.40
2018,08,10,09,21,16.30
2018,08,10,09,22,16.30
2018,08,10,09,23,16.30
2018,08,10,09,24,16.30
2018,08,10,09,25,16.30
2018,08,10,09,26,16.20
2018,08,10,09,27,16.20
2018,08,10,09,28,16.20
2018,08,10,09,29,16.20
2018,08,10,09,30,16.20
2018,08,10,09,31,16.20
2018,08,10,09,32,16.20
2018,08,10,09,33,16.20
2018,08,10,09,34,16.10
2018,08,10,09,35,16.10
2018,08,10,09,36,16.10
2018,08,10,09,37,16.10
2018,08,10,09,38,16.10
2018,08,10,09,39,16.10
2018,08,10,09,40,16.20
2018,08,10,09,41,16.30
2018,08,10,09,42,16.30
2018,08,10,09,43,16.30
2018,08,10,09,44,16.30
2018,08,10,09,45,16.20
2018,08,10,09,46,16.20
2018,08,10,09,47,16.10
2018,08,10,09,48,16.20
2018,08,10,09,49,16.20
2018,08,10,09,50,16.10
2018,08,10,09,51,16.20
2018,08,10,09,52,16.20
2018,08,10,09,53,16.30
2018,08,10,09,54,16.30
2018,08,10,09,55,16.40
2018,08,10,09,56,16.50
2018,08,10,09,57,16.60
2018,08,10,09,58,16.80
2018,08,10,09,59,16.90
2018,08,10,10,00,17.10
2018,08,10,10,01,17.30
2018,08,10,10,02,17.50
2018,08,10,10,03,17.80
2018,08,10,10,04,18.00
2018,08,10,10,05,18.20
2018,08,10,10,06,18.40
2018,08,10,10,07,18.70
2018,08,10,10,08,18.90
2018,08,10,10,09,19.10
2018,08,10,10,10,19.30
2018,08,10,10,11,19.50
2018,08,10,10,12,19.70
2018,08,10,10,13,19.80
2018,08,10,10,14,19.90
2018,08,10,10,15,20.00
2018,08,10,10,16,20.10
2018,08,10,10,17,20.20
2018,08,10,10,18,20.20
2018,08,10,10,19,20.30
2018,08,10,10,20,20.30
2018,08,10,10,21,20.40
2018,08,10,10,22,20.40
2018,08,10,10,23,20.40
2018,08,10,10,24,20.30
2018,08,10,10,25,20.30
2018,08,10,10,26,20.10
2018,08,10,10,27,20.00
2018,08,10,10,28,19.90
2018,08,10,10,29,19.90
2018,08,10,10,30,19.80
2018,08,10,10,31,19.70
2018,08,10,10,32,19.70
2018,08,10,10,33,19.70
2018,08,10,10,34,19.70
2018,08,10,10,35,19.80
2018,08,10,10,36,19.90
2018,08,10,10,37,20.00
2018,08,10,10,38,20.20
2018,08,10,10,39,20.30
2018,08,10,10,40,20.50
2018,08,10,10,41,20.70
2018,08,10,10,42,20.80
2018,08,10,10,43,21.00
2018,08,10,10,44,21.10
2018,08,10,10,45,21.20
2018,08,10,10,46,21.20
2018,08,10,10,47,21.20
2018,08,10,10,48,21.10
2018,08,10,10,49,21.00
2018,08,10,10,50,21.00
2018,08,10,10,51,20.90
2018,08,10,10,52,20.80
2018,08,10,10,53,20.80
2018,08,10,10,54,20.70
2018,08,10,10,55,20.60
2018,08,10,10,56,20.60
2018,08,10,10,57,20.50
2018,08,10,10,58,20.40
2018,08,10,10,59,20.30
2018,08,10,11,00,20.10
2018,08,10,11,01,20.00
2018,08,10,11,02,19.90
2018,08,10,11,03,19.70
2018,08,10,11,04,19.60
2018,08,10,11,05,19.50
2018,08,10,11,06,19.30
2018,08,10,11,07,19.30
2018,08,10,11,08,19.30
2018,08,10,11,09,19.20
2018,08,10,11,10,19.20
2018,08,10,11,11,19.20
2018,08,10,11,12,19.10
2018,08,10,11,13,19.10
2018,08,10,11,14,19.00
2018,08,10,11,15,19.00
2018,08,10,11,16,19.10
2018,08,10,11,17,19.10
2018,08,10,11,18,19.10
2018,08,10,11,19,18.90
2018,08,10,11,20,18.80
2018,08,10,11,21,18.80
2018,08,10,11,22,18.80
2018,08,10,11,23,18.80
2018,08,10,11,24,18.70
2018,08,10,11,25,18.50
2018,08,10,11,26,18.40
2018,08,10,11,27,18.50
2018,08,10,11,28,18.60
2018,08,10,11,29,18.50
2018,08,10,11,30,18.40
2018,08,10,11,31,18.30
2018,08,10,11,32,18.30
2018,08,10,11,33,18.30
2018,08,10,11,34,18.40
2018,08,10,11,35,18.40
2018,08,10,11,36,18.40
2018,08,10,11,37,18.30
2018,08,10,11,38,18.30
2018,08,10,11,39,18.40
2018,08,10,11,40,18.40
2018,08,10,11,41,18.50
2018,08,10,11,42,18.50
2018,08,10,11,43,18.50
2018,08,10,11,44,18.50
2018,08,10,11,45,18.40
2018,08,10,11,46,18.40
2018,08,10,11,47,18.40
2018,08,10,11,48,18.40
2018,08,10,11,49,18.40
2018,08,10,11,50,18.40
2018,08,10,11,51,18.40
2018,08,10,11,52,18.40
2018,08,10,11,53,18.40
2018,08,10,11,54,18.50
2018,08,10,11,55,18.50
2018,08,10,11,56,18.50
2018,08,10,11,57,18.40
2018,08,10,11,58,18.50
2018,08,10,11,59,18.60
2018,08,10,12,00,18.60
2018,08,10,12,01,18.60
2018,08,10,12,02,18.70
2018,08,10,12,03,18.70
2018,08,10,12,04,18.70
2018,08,10,12,05,18.70
2018,08,10,12,06,18.80
2018,08,10,12,07,18.80
2018,08,10,12,08,18.90
2018,08,10,12,09,18.90
2018,08,10,12,10,18.90
2018,08,10,12,11,18.90
2018,08,10,12,12,18.90
2018,08,10,12,13,18.90
2018,08,10,12,14,18.90
2018,08,10,12,15,19.00
2018,08,10,12,16,19.10
2018,08,10,12,17,19.20
2018,08,10,12,18,19.30
2018,08,10,12,19,19.30
2018,08,10,12,20,19.40
2018,08,10,12,21,19.30
2018,08,10,12,22,19.30
2018,08,10,12,23,19.40
2018,08,10,12,24,19.40
2018,08,10,12,25,19.40
2018,08,10,12,26,19.40
2018,08,10,12,27,19.50
2018,08,10,12,28,19.50
2018,08,10,12,29,19.50
2018,08,10,12,30,19.50
2018,08,10,12,31,19.40
2018,08,10,12,32,19.50
2018,08,10,12,33,19.60
2018,08,10,12,34,19.70
2018,08,10,12,35,19.60
2018,08,10,12,36,19.60
2018,08,10,12,37,19.70
2018,08,10,12,38,19.60
2018,08,10,12,39,19.60
2018,08,10,12,40,19.60
2018,08,10,12,41,19.50
2018,08,10,12,42,19.40
2018,08,10,12,43,19.30
2018,08,10,12,44,19.10
2018,08,10,12,45,19.00
2018,08,10,12,46,19.00
2018,08,10,12,47,19.00
2018,08,10,12,48,19.00
2018,08,10,12,49,19.00
2018,08,10,12,50,18.90
2018,08,10,12,51,19.00
2018,08,10,12,52,19.00
2018,08,10,12,53,19.10
2018,08,10,12,54,19.20
2018,08,10,12,55,19.30
2018,08,10,12,56,19.40
2018,08,10,12,57,19.40
2018,08,10,12,58,19.30
2018,08,10,12,59,19.30
2018,08,10,13,00,19.30
2018,08,10,13,01,19.30
2018,08,10,13,02,19.30
2018,08,10,13,03,19.30
2018,08,10,13,04,19.40
2018,08,10,13,05,19.60
2018,08,10,13,06,19.70
2018,08,10,13,07,19.70
2018,08,10,13,08,19.70
2018,08,10,13,09,19.60
2018,08,10,13,10,19.50
2018,08,10,13,11,19.40
2018,08,10,13,12,19.30
2018,08,10,13,13,19.20
2018,08,10,13,14,19.30
2018,08,10,13,15,19.40
2018,08,10,13,16,19.50
2018,08,10,13,17,19.50
2018,08,10,13,18,19.50
2018,08,10,13,19,19.50
2018,08,10,13,20,19.60
2018,08,10,13,21,19.60
2018,08,10,13,22,19.50
2018,08,10,13,23,19.40
2018,08,10,13,24,19.30
2018,08,10,13,25,19.30
2018,08,10,13,26,19.30
2018,08,10,13,27,19.30
2018,08,10,13,28,19.20
2018,08,10,13,29,19.20
2018,08,10,13,30,19.20
2018,08,10,13,31,19.20
2018,08,10,13,32,19.20
2018,08,10,13,33,19.10
2018,08,10,13,34,19.00
2018,08,10,13,35,19.00
2018,08,10,13,36,19.00
2018,08,10,13,37,19.10
2018,08,10,13,38,19.20
2018,08,10,13,39,19.30
2018,08,10,13,40,19.30
2018,08,10,13,41,19.20
2018,08,10,13,42,19.20
2018,08,10,13,43,19.20
2018,08,10,13,44,19.10
2018,08,10,13,45,19.00
2018,08,10,13,46,19.00
2018,08,10,13,47,19.00
2018,08,10,13,48,19.00
2018,08,10,13,49,19.00
2018,08,10,13,50,19.10
2018,08,10,13,51,19.00
2018,08,10,13,52,18.80
2018,08,10,13,53,18.60
2018,08,10,13,54,18.40
2018,08,10,13,55,18.20
2018,08,10,13,56,18.20
2018,08,10,13,57,18.20
2018,08,10,13,58,18.30
2018,08,10,13,59,18.20
2018,08,10,14,00,18.20
2018,08,10,14,01,18.30
2018,08,10,14,02,18.30
2018,08,10,14,03,18.40
2018,08,10,14,04,18.50
2018,08,10,14,05,18.70
2018,08,10,14,06,18.70
2018,08,10,14,07,18.80
2018,08,10,14,08,18.90
2018,08,10,14,09,18.90
2018,08,10,14,10,18.90
2018,08,10,14,11,18.90
2018,08,10,14,12,18.90
2018,08,10,14,13,19.00
2018,08,10,14,14,19.10
2018,08,10,14,15,19.20
2018,08,10,14,16,19.30
2018,08,10,14,17,19.40
2018,08,10,14,18,19.60
2018,08,10,14,19,19.70
2018,08,10,14,20,19.70
2018,08,10,14,21,19.80
2018,08,10,14,22,19.80
2018,08,10,14,23,19.80
2018,08,10,14,24,19.90
2018,08,10,14,25,19.80
2018,08,10,14,26,19.80
2018,08,10,14,27,19.90
2018,08,10,14,28,19.90
2018,08,10,14,29,19.90
2018,08,10,14,30,20.00
2018,08,10,14,31,20.10
2018,08,10,14,32,20.20
2018,08,10,14,33,20.30
2018,08,10,14,34,20.30
2018,08,10,14,35,20.50
2018,08,10,14,36,20.60
2018,08,10,14,37,20.70
2018,08,10,14,38,20.70
2018,08,10,14,39,20.70
2018,08,10,14,40,20.70
2018,08,10,14,41,20.70
2018,08,10,14,42,20.60
2018,08,10,14,43,20.60
2018,08,10,14,44,20.70
2018,08,10,14,45,20.80
2018,08,10,14,46,20.80
2018,08,10,14,47,20.80
2018,08,10,14,48,20.60
2018,08,10,14,49,20.40
2018,08,10,14,50,20.20
2018,08,10,14,51,20.10
2018,08,10,14,52,20.00
2018,08,10,14,53,19.90
2018,08,10,14,54,19.80
2018,08,10,14,55,19.70
2018,08,10,14,56,19.70
2018,08,10,14,57,19.50
2018,08,10,14,58,19.40
2018,08,10,14,59,19.20
2018,08,10,15,00,18.90
2018,08,10,15,01,18.80
2018,08,10,15,02,18.70
2018,08,10,15,03,18.60
2018,08,10,15,04,18.60
2018,08,10,15,05,18.60
2018,08,10,15,06,18.60
2018,08,10,15,07,18.50
2018,08,10,15,08,18.40
2018,08,10,15,09,18.40
2018,08,10,15,10,18.40
2018,08,10,15,11,18.40
2018,08,10,15,12,18.30
2018,08,10,15,13,18.20
2018,08,10,15,14,18.20
2018,08,10,15,15,18.20
2018,08,10,15,16,18.10
2018,08,10,15,17,18.10
2018,08,10,15,18,18.10
2018,08,10,15,19,18.10
2018,08,10,15,20,18.10
2018,08,10,15,21,18.00
2018,08,10,15,22,17.90
2018,08,10,15,23,17.80
2018,08,10,15,24,17.70
2018,08,10,15,25,17.70
2018,08,10,15,26,17.60
2018,08,10,15,27,17.60
2018,08,10,15,28,17.60
2018,08,10,15,29,17.60
2018,08,10,15,30,17.60
2018,08,10,15,31,17.60
2018,08,10,15,32,17.60
2018,08,10,15,33,17.50
2018,08,10,15,34,17.50
2018,08,10,15,35,17.50
2018,08,10,15,36,17.50
2018,08,10,15,37,17.60
2018,08,10,15,38,17.60
2018,08,10,15,39,17.60
2018,08,10,15,40,17.70
2018,08,10,15,41,17.70
2018,08,10,15,42,17.70
2018,08,10,15,43,17.70
2018,08,10,15,44,17.80
2018,08,10,15,45,17.80
2018,08,10,15,46,17.80
2018,08,10,15,47,17.80
2018,08,10,15,48,17.70
2018,08,10,15,49,17.70
2018,08,10,15,50,17.70
2018,08,10,15,51,17.70
2018,08,10,15,52,17.70
2018,08,10,15,53,17.80
2018,08,10,15,54,17.80
2018,08,10,15,55,17.80
2018,08,10,15,56,17.80
2018,08,10,15,57,17.80
2018,08,10,15,58,17.80
2018,08,10,15,59,17.80
2018,08,10,16,00,17.80
2018,08,10,16,01,17.80
2018,08,10,16,02,17.70
2018,08,10,16,03,17.60
2018,08,10,16,04,17.50
2018,08,10,16,05,17.40
2018,08,10,16,06,17.30
2018,08,10,16,07,17.30
2018,08,10,16,08,17.30
2018,08,10,16,09,17.30
2018,08,10,16,10,17.30
2018,08,10,16,11,17.30
2018,08,10,16,12,17.30
2018,08,10,16,13,17.30
2018,08,10,16,14,17.30
2018,08,10,16,15,17.30
2018,08,10,16,16,17.30
2018,08,10,16,17,17.40
2018,08,10,16,18,17.40
2018,08,10,16,19,17.50
2018,08,10,16,20,17.60
2018,08,10,16,21,17.60
2018,08,10,16,22,17.70
2018,08,10,16,23,17.70
2018,08,10,16,24,17.80
2018,08,10,16,25,17.80
2018,08,10,16,26,17.80
2018,08,10,16,27,17.90
2018,08,10,16,28,17.90
2018,08,10,16,29,17.90
2018,08,10,16,30,18.00
2018,08,10,16,31,18.00
2018,08,10,16,32,17.90
2018,08,10,16,33,17.90
2018,08,10,16,34,17.90
2018,08,10,16,35,17.90
2018,08,10,16,36,17.80
2018,08,10,16,37,17.80
2018,08,10,16,38,17.80
2018,08,10,16,39,17.70
2018,08,10,16,40,17.70
2018,08,10,16,41,17.70
2018,08,10,16,42,17.70
2018,08,10,16,43,17.60
2018,08,10,16,44,17.60
2018,08,10,16,45,17.60
2018,08,10,16,46,17.60
2018,08,10,16,47,17.70
2018,08,10,16,48,17.70
2018,08,10,16,49,17.70
2018,08,10,16,50,17.80
2018,08,10,16,51,17.80
2018,08,10,16,52,17.80
2018,08,10,16,53,17.90
2018,08,10,16,54,17.90
2018,08,10,16,55,17.90
2018,08,10,16,56,17.90
2018,08,10,16,57,17.80
2018,08,10,16,58,17.80
2018,08,10,16,59,17.80
2018,08,10,17,00,17.70
2018,08,10,17,01,17.70
2018,08,10,17,02,17.80
2018,08,10,17,03,17.80
2018,08,10,17,04,17.80
2018,08,10,17,05,17.90
2018,08,10,17,06,17.90
2018,08,10,17,07,18.00
2018,08,10,17,08,18.10
2018,08,10,17,09,18.20
2018,08,10,17,10,18.30
2018,08,10,17,11,18.40
2018,08,10,17,12,18.40
2018,08,10,17,13,18.50
2018,08,10,17,14,18.50
2018,08,10,17,15,18.50
2018,08,10,17,16,18.50
2018,08,10,17,17,18.40
2018,08,10,17,18,18.40
2018,08,10,17,19,18.40